Regional Weather Roundup
Issued by NWS

Home | Current Version | Previous Version | Graphics & Text | Print | Product List | Glossary On
Versions: 1 2 3 4 5 6 7 8 9 10 11 12 13 14 15 16 17 18 19 20 21 22 23 24 25 26 27 28 29 30 31 32 33 34 35 36 37 38 39 40 41 42 43 44 45 46 47 48 49 50
000
ASUS43 KLOT 021921
RWRIL

ILLINOIS REGIONAL WEATHER ROUNDUP
NATIONAL WEATHER SERVICE CHICAGO/ROMEOVILLE IL
200 PM CDT SUN AUG 02 2015

NOTE: "FAIR" INDICATES FEW OR NO CLOUDS BELOW 12,000 FEET WITH NO
SIGNIFICANT WEATHER AND/OR OBSTRUCTIONS TO VISIBILITY.

* THESE STATIONS ARE NOT UNDER NWS QUALITY CONTROL. THEY ALSO MAY NOT
  REPORT WEATHER SUCH AS PRECIPITATION OR FOG.

ILZ001-002-007-009-015-016-024-022000-
NORTHWEST ILLINOIS

CITY           SKY/WX    TMP DP  RH WIND       PRES   REMARKS
MOLINE         MOSUNNY   90  71  53 SW17      29.77F HX  96
STERLING*      MOSUNNY   90  73  58 W14       29.73F HX  98
SAVANNA*       MOSUNNY   87  70  55 SW13G18   29.74F HX  92
$$

ILZ003-004-008-010-011-017-018-022000-
NORTH CENTRAL ILLINOIS

CITY           SKY/WX    TMP DP  RH WIND       PRES   REMARKS
ROCKFORD       MOSUNNY   89  68  49 SW21G29   29.75F HX  93
FREEPORT*      MOSUNNY   85  70  60 SW21G26   29.76F HX  89
ROCHELLE*      PTSUNNY   81  74  80 SW7       29.79S HX  86
DE KALB*       TSTM      76  68  78 SW18G40   29.80S
PERU*          SUNNY     89  68  50 SW15G23   29.80F HX  92
$$

ILZ005-006-012>014-019>023-022000-
NORTHEAST ILLINOIS

CITY           SKY/WX    TMP DP  RH WIND       PRES   REMARKS
CHICAGO-OHARE  MOSUNNY   90  66  45 SW20G33   29.75F HX  92
CHICAGO-MIDWAY MOSUNNY   94  64  37 SW21G30   29.76F HX  95
AURORA         PTSUNNY   85  67  54 SW16G26   29.78F THUNDER HX  87
LANSING*       SUNNY     92  62  37 W22G35    29.79F HX  92
JOLIET*        SUNNY     91  70  50 SW15G24   29.79F HX  96
WAUKEGAN       SUNNY     90  67  46 SW13G26   29.70F HX  93
DUPAGE AIRPORT MOSUNNY   86  68  54 SW22G30   29.76F HX  89
KANKAKEE*      SUNNY     90  72  54 SW21      29.83F HX  97
WHEELING       SUNNY     92  65  40 SW15G30   29.74F HX  94
MORRIS*        SUNNY     89  72  58 SW16G22   29.78F HX  95
ROMEOVILLE*    SUNNY     89  65  44 SW17G26   29.78F HX  91
NORTHERLY ISL    N/A     90  60  36 W16         N/A  HX  89
$$

LMZ740>746-022000-
SOUTHERN LAKE MICHIGAN

STATION/POSITION SKY/WX   TEMP    WIND        PRES    VSBY  WAVE
                          AIR SEA DIR/SP/G                  HT/PER
                          (F)     (DEG/KT/KT) (MB)    (MI)  (FT/S)
HARRISON CRIB              87     230/ 20/ 26   N/A
BURNHAM HARBOR             91     220/ 10/ 21   N/A
CALUMET HARBOR             90     230/ 12/ 20   N/A
BURNS HARBOR               87     230/ 17/ 27 1009.5S
MICHIGAN CITY              85     210/ 22/ 26   N/A
MICHIGAN CITY 6N           81 74  240/ 14/ 17   N/A           2/ 3
ST. JOSEPH                 78 74  240/ 12/ 14   N/A           2/ 4
$$

ILZ025>027-034>036-040-047-049-050-058-095>099-022000-
WEST-CENTRAL ILLINOIS

CITY           SKY/WX    TMP DP  RH WIND       PRES   REMARKS
QUINCY         SUNNY     90  71  53 SW13      29.87F HX  96
GALESBURG*     SUNNY     88  74  62 SW13G20   29.83F HX  96
MACOMB*        SUNNY     88  72  59 SW15G21   29.86F HX  95
JACKSONVILLE*  SUNNY     91  72  54 SW12G20   29.87F HX  98
PITTSFIELD*    SUNNY     90  69  49 SW13G18   29.89S HX  94
$$

ILZ028>032-037-038-041>044-048-051>054-059>061-022000-
CENTRAL ILLINOIS

CITY           SKY/WX    TMP DP  RH WIND       PRES   REMARKS
PONTIAC        SUNNY     89  73  59 SW17G23   29.84F HX  97
BLOOMINGTON    MOSUNNY   86  65  49 SW14G23   29.88F HX  88
DECATUR        CLOUDY    84  71  65 S3        29.90F HX  89
PEORIA         SUNNY     92  72  51 SW14G23   29.84F HX  99
LACON*         SUNNY     88  71  57 SW15      29.81F HX  94
LINCOLN*       MOSUNNY   88  71  56 S13       29.86F HX  93
SPRINGFIELD    MOSUNNY   90  73  57 SW9G18    29.87F HX  98
TAYLORVILLE    MOSUNNY   88  70  55 SW10      29.89F HX  92
$$

ILZ033-039-045-046-055>057-062-063-022000-
EAST-CENTRAL ILLINOIS

CITY           SKY/WX    TMP DP  RH WIND       PRES   REMARKS
CHAMPAIGN      PTSUNNY   83  71  67 SW8       29.91S HX  87
DANVILLE*      MOSUNNY   86  73  63 SW14G20   29.87S HX  93
RANTOUL*       MOSUNNY   90  72  54 SW17      29.88F HX  97
MATTOON        MOSUNNY   86  69  56 SW7       29.91F HX  90
PARIS*         SUNNY     87  71  58 SW10G18   29.91F HX  92
$$

ILZ079-100>102-022000-
SOUTHWEST ILLINOIS

CITY           SKY/WX    TMP DP  RH WIND       PRES   REMARKS
BELLEVILLE     MOSUNNY   92  73  53 SW13      29.89F HX 100
CAHOKIA*       SUNNY     95  67  39 W10       29.90S HX  99
SPARTA*        SUNNY     89  71  54 CALM      29.93F HX  95
$$

ILZ064>066-069>071-074>076-080>082-084>086-088>090-092>094-022000-
SOUTH-CENTRAL ILLINOIS

CITY           SKY/WX    TMP DP  RH WIND       PRES   REMARKS
CARBONDALE     MOSUNNY   89  71  55 W7        29.93F HX  95
CAIRO*         MOSUNNY   87  73  61 S5        29.94F HX  94
EFFINGHAM*     MOSUNNY   91  62  38 S8        29.93F HX  91
MARION         PTSUNNY   88  73  62 SW9       29.94F HX  96
MT. VERNON     MOSUNNY   91  72  52 S9G16     29.93F HX  98
CENTRALIA*     SUNNY     90  67  46 SW5       29.92F HX  93
SALEM*         SUNNY     92  67  43 SW8       29.92F HX  95
METROPOLIS*    SUNNY     88  73  60 W5        29.95F HX  95
$$

ILZ067-068-072-073-078-083-087-091-022000-
SOUTHEAST ILLINOIS

CITY           SKY/WX    TMP DP  RH WIND       PRES   REMARKS
LAWRENCEVILLE  SUNNY     89  68  49 S10       29.93F HX  93
FLORA*         SUNNY     89  69  52 SW6       29.92F HX  93
FAIRFIELD*     SUNNY     88  73  61 S12       29.92F HX  95
HARRISBURG*    SUNNY     88  71  57 S9        29.95F HX  94
ROBINSON*      SUNNY     88  70  55 SW10      29.93S HX  93
CARMI*         SUNNY     86  66  51 S9        29.93F HX  88
$$

ABBREVIATIONS USED IN REMARKS
   TC - TEMPERATURE IN CELSIUS
  WCI - WIND CHILL INDEX
   HX - HEAT INDEX
  VSB - VISIBILITY
$$




USA.gov is the U.S. government's official web portal to all federal, state and local government web resources and services.